Theta_e
323 323 324 322 323 323 323 324 326 326 324 324 324 323 322 322 321 323 324 324 323 326 326 324 325 324 324 323 323 320 309 292 289 290 291 294 306 321 322 323 323 324 315 294 296 295 294 290 294 293 290 292 292 294 294 290 289 294 290 284 284 281 283 284 286 285 285 286 287 286 291 294 294 292 293 291 290 288 290 291 289 290 285 285 286 285 287 288
324 324 322 323 325 325 324 324 324 324 325 322 322 322 322 322 322 324 322 322 323 326 325 323 323 323 323 322 321 319 296 291 290 290 293 304 317 320 322 323 324 322 313 294 295 292 294 292 292 289 291 293 290 293 292 291 290 286 282 283 284 281 283 286 284 287 287 289 286 287 287 293 294 290 292 291 289 287 291 291 288 291 289 285 285 286 287 287
323 323 321 324 325 324 324 324 324 325 324 323 322 324 323 322 322 324 322 323 325 326 325 323 322 322 323 323 320 318 299 291 292 291 294 317 322 321 322 321 324 317 297 298 294 294 296 294 294 292 288 291 288 292 289 290 292 285 287 284 281 283 283 284 282 286 285 285 285 288 287 291 293 290 288 291 287 285 289 288 289 290 292 286 284 285 286 286
321 321 323 323 323 323 324 325 325 325 325 325 325 324 323 322 322 322 323 324 323 325 324 322 322 323 321 321 321 304 292 290 289 291 294 314 321 320 319 321 320 307 296 295 293 295 290 289 287 292 290 290 286 287 291 290 290 286 286 282 283 280 287 286 282 283 282 285 285 286 285 289 290 287 289 287 288 286 285 286 292 291 291 287 284 285 285 285
320 322 322 322 322 323 323 324 323 324 324 324 323 323 322 321 323 323 324 324 323 324 325 324 324 323 321 320 314 297 292 287 289 291 294 316 319 318 318 318 315 294 296 294 292 290 291 291 291 287 289 290 287 289 287 287 286 287 285 282 283 281 285 286 282 280 280 282 285 284 288 289 287 287 286 287 289 289 286 290 287 291 291 286 284 284 285 285
319 320 320 321 320 321 322 323 323 323 323 323 323 323 321 321 322 323 323 324 324 325 324 323 323 322 321 315 297 298 291 282 293 292 316 316 318 315 317 316 312 294 292 290 291 289 295 290 291 290 286 289 287 288 287 284 287 287 283 282 280 281 286 282 280 281 281 284 284 285 288 285 285 286 282 285 289 289 288 285 288 287 288 287 286 285 284 285
319 320 320 321 321 321 322 322 321 321 321 321 322 322 321 322 322 323 323 323 323 324 323 323 322 320 319 311 295 292 291 292 290 294 307 316 315 311 312 310 305 293 292 293 291 294 288 289 291 286 285 286 286 285 285 286 286 287 285 282 284 280 285 281 283 280 280 282 283 284 285 286 284 288 283 284 285 285 284 283 286 286 284 285 284 285 285 285
319 319 319 320 320 320 320 321 321 320 321 321 321 323 320 322 322 322 322 323 323 323 324 323 322 319 314 296 298 288 287 292 294 294 306 310 298 295 305 293 293 292 292 291 292 290 289 289 292 286 288 287 286 286 287 287 286 286 284 284 281 280 280 279 279 279 279 282 281 282 284 284 283 284 282 284 284 283 282 282 283 283 283 283 284 284 284 284
320 320 319 318 318 319 319 320 321 321 321 322 323 322 323 321 321 321 322 322 322 323 322 323 322 319 309 293 290 286 287 292 294 292 293 292 292 291 294 297 290 292 288 287 288 291 291 289 288 287 289 286 286 288 285 287 285 284 285 282 281 283 281 280 281 279 280 282 281 283 282 281 279 281 284 285 284 283 282 283 281 283 283 282 283 283 283 283
320 320 319 318 317 318 318 320 320 321 321 322 323 322 322 321 320 321 321 322 322 322 322 322 321 314 298 294 287 286 291 293 291 291 290 290 291 293 292 290 289 291 294 290 290 290 291 288 291 288 287 287 286 287 286 286 286 285 284 281 283 283 281 281 282 282 280 282 281 283 282 282 281 283 285 284 283 281 283 282 281 281 281 281 282 282 283 283
320 317 318 318 317 318 318 318 318 318 321 321 321 322 321 320 320 320 322 322 322 323 322 321 318 309 295 289 287 285 294 293 292 290 290 291 292 293 293 292 290 289 289 289 290 290 292 288 287 288 292 289 287 286 285 287 284 284 283 282 283 282 281 281 281 282 281 285 280 283 282 281 282 283 283 283 283 281 282 281 281 281 281 281 282 282 282 282
320 317 317 317 318 318 318 318 317 317 319 320 321 320 320 319 319 320 321 321 322 322 320 319 311 294 290 289 287 291 292 293 292 290 291 292 293 292 292 291 290 290 292 292 290 289 288 288 289 293 289 290 287 286 286 286 286 283 283 286 284 282 285 284 283 282 281 284 281 282 283 282 281 282 283 282 281 281 281 280 280 280 280 281 282 282 282 282
319 319 318 318 318 318 319 318 318 318 319 322 320 321 319 319 319 319 320 321 320 320 319 319 307 296 295 290 293 293 291 290 292 291 293 291 290 290 290 289 290 291 290 290 289 290 287 289 290 292 290 287 286 287 287 286 284 285 284 284 285 282 282 284 281 281 282 284 279 283 281 281 282 282 283 283 279 280 281 280 280 280 280 281 281 281 282 283
319 319 317 318 318 318 318 318 318 318 319 320 320 319 319 319 319 320 320 320 323 322 319 315 295 294 294 289 293 295 293 290 291 293 291 292 294 292 292 292 289 287 289 290 289 289 290 290 292 292 291 289 288 291 287 283 284 285 284 282 280 281 280 284 281 280 283 284 281 285 281 279 280 282 283 282 279 281 279 280 280 280 280 281 281 282 282 282
318 317 318 319 321 319 319 319 318 317 318 318 318 319 319 319 319 319 321 321 319 320 317 308 295 296 289 292 293 293 310 292 291 291 288 293 291 293 292 292 291 288 289 288 289 290 290 291 292 288 289 287 289 288 282 281 280 281 283 279 278 281 279 281 283 281 283 284 284 286 279 280 281 282 282 281 279 281 279 279 280 280 281 281 282 282 282 282
318 318 319 320 319 317 318 317 317 317 317 318 318 319 320 320 319 319 322 319 318 320 302 300 295 290 286 289 293 304 290 291 292 291 289 292 291 292 291 289 289 289 290 290 290 291 290 291 288 286 287 286 284 277 278 282 280 280 282 277 278 279 279 282 283 280 280 282 283 284 282 281 281 281 281 281 280 280 279 279 280 280 281 282 282 282 282 282
317 317 319 319 317 317 317 317 316 317 318 319 319 318 320 317 319 321 315 312 304 303 297 297 291 294 290 291 295 289 289 290 290 291 291 290 292 291 291 290 289 290 289 290 290 291 289 289 286 287 284 284 281 281 281 274 275 277 280 279 276 280 280 280 283 283 282 283 284 282 283 280 279 280 281 281 280 280 279 279 280 280 281 282 282 281 281 281
318 318 319 318 318 317 317 317 317 317 318 319 318 318 312 315 316 312 305 302 298 297 296 294 290 291 290 291 288 289 290 287 291 290 288 289 290 289 291 290 289 287 286 290 289 289 288 288 285 284 283 279 283 281 277 275 279 278 279 278 279 279 279 280 280 283 281 283 283 280 282 280 278 279 280 280 280 280 279 279 280 280 280 281 281 281 280 280
319 318 318 318 318 318 318 318 317 318 318 314 313 318 311 311 297 295 293 294 296 290 290 289 289 284 284 288 287 288 291 291 290 290 293 291 291 289 290 289 287 290 287 285 288 289 286 287 285 283 283 281 282 282 280 281 279 283 281 278 277 278 279 279 280 282 282 283 283 281 280 277 278 278 279 280 280 280 280 280 280 280 280 280 280 280 280 279
318 317 318 317 318 318 317 317 318 318 317 303 293 298 293 291 287 293 292 294 288 289 289 290 288 288 288 288 290 292 292 290 291 291 290 290 294 290 291 290 290 288 286 287 285 285 287 284 281 281 281 280 279 280 283 280 281 280 280 280 279 278 279 280 281 282 281 282 279 278 277 276 277 277 278 279 281 280 280 279 279 280 280 280 280 279 279 279
316 317 316 316 317 317 318 317 318 318 313 294 292 291 288 287 284 283 285 288 286 287 290 288 288 289 290 289 288 289 288 289 288 289 292 292 290 290 289 288 283 288 282 284 286 288 288 282 282 282 283 282 281 280 280 280 280 283 280 279 278 278 278 280 282 281 282 282 279 277 277 276 277 277 278 279 280 278 278 279 279 279 280 280 279 279 279 279
316 316 315 316 317 317 318 317 317 315 308 296 294 290 288 289 289 288 289 286 289 288 288 289 288 286 286 288 289 287 286 285 288 290 292 294 289 289 288 284 285 286 282 283 284 281 281 282 283 283 282 281 280 281 281 282 281 279 280 277 278 279 279 280 280 280 280 283 279 277 277 276 276 277 278 278 277 278 278 278 279 279 279 279 279 278 278 278
315 314 315 316 317 318 317 318 316 310 295 295 292 291 294 298 296 294 290 285 286 290 288 287 290 284 286 288 290 290 286 284 285 288 291 291 288 288 286 284 281 282 283 284 285 281 281 280 282 282 281 281 281 280 281 280 280 279 277 278 278 278 278 277 280 280 281 280 280 278 276 276 277 278 277 277 278 277 278 278 278 280 279 279 278 279 278 277
316 314 315 316 316 316 317 315 310 301 294 293 294 295 296 296 296 295 289 286 285 289 290 289 289 286 287 289 290 289 287 287 286 288 291 289 287 287 286 284 282 283 285 283 281 282 280 283 280 279 279 282 281 279 280 278 279 276 278 276 275 277 277 278 277 278 279 280 278 278 277 275 275 276 276 278 278 278 278 278 278 278 279 279 279 279 279 277
315 315 314 315 316 315 315 309 296 295 292 291 292 296 295 296 296 295 291 284 282 287 291 290 286 288 291 293 289 291 286 286 286 287 287 288 287 286 287 286 284 281 285 281 281 282 281 282 281 281 279 279 282 280 279 279 277 275 275 278 279 277 279 278 277 278 276 275 278 278 273 271 274 275 274 277 277 276 277 277 276 277 278 278 278 277 278 278
314 315 315 316 315 314 313 296 290 294 293 292 294 297 297 294 294 293 285 279 278 284 288 288 293 290 292 290 289 284 289 287 289 289 291 289 290 288 286 284 284 285 282 282 282 281 283 281 281 282 281 279 278 278 279 279 277 275 278 277 278 277 277 277 277 277 269 271 276 277 274 270 273 274 275 275 275 275 276 276 276 276 277 278 277 277 277 277
314 316 316 316 314 312 295 291 290 293 290 291 296 296 297 296 294 296 290 270 272 286 285 291 291 290 292 288 287 286 280 282 288 288 287 290 289 290 285 282 284 284 284 283 281 282 282 282 280 277 278 278 277 280 280 277 275 277 279 276 276 278 278 277 277 276 274 275 278 277 275 270 269 274 275 275 274 274 275 275 275 276 276 277 277 277 277 277
315 315 315 315 313 307 296 291 291 290 290 292 293 294 295 296 295 291 279 266 271 288 285 286 291 292 290 288 286 285 285 285 284 289 288 288 290 286 285 284 283 283 283 282 275 281 281 281 279 280 277 278 279 279 280 278 279 278 278 277 278 278 277 277 275 273 273 273 273 273 276 272 268 272 274 275 273 273 274 274 275 275 276 276 277 277 277 277
315 315 315 315 313 308 293 292 291 294 293 292 293 294 296 290 289 283 273 270 280 282 295 288 296 288 285 288 285 282 284 284 283 286 287 288 289 288 282 284 281 281 281 282 279 277 282 281 282 281 280 279 279 279 277 278 279 279 277 276 275 275 274 274 270 272 271 270 266 271 275 269 269 272 273 275 274 273 273 275 275 275 276 276 276 277 277 277
315 314 314 313 301 296 293 290 294 292 293 290 293 294 292 292 286 277 272 269 286 277 288 287 286 283 281 281 281 282 283 283 283 284 285 284 287 285 284 285 281 281 282 279 280 280 280 283 284 280 279 281 279 277 276 277 278 278 278 278 275 272 271 271 269 267 265 261 266 271 272 272 267 272 273 273 274 273 275 275 276 275 275 276 276 277 277 277
313 314 312 309 295 294 290 287 291 294 296 296 294 293 291 284 273 264 267 274 284 284 283 283 282 282 280 280 278 281 281 279 282 281 282 283 284 282 282 283 281 277 275 276 279 277 281 280 281 280 282 280 279 279 278 278 277 278 275 275 275 273 271 270 264 265 262 259 265 270 271 272 266 269 274 274 274 273 275 274 275 274 275 276 277 277 277 277
312 312 310 299 296 291 292 291 292 296 294 293 294 286 282 280 274 270 272 283 278 279 279 279 280 279 280 279 278 280 279 278 280 279 278 277 277 279 278 275 275 268 267 273 274 276 280 280 280 280 284 279 279 277 277 275 276 276 273 273 270 266 264 264 260 266 262 264 273 269 271 270 271 271 273 273 274 274 275 276 275 275 275 276 277 277 278 278
312 311 306 301 298 292 294 290 295 297 296 292 286 283 276 266 270 269 270 275 277 281 280 282 280 279 278 278 277 278 278 279 280 279 279 279 276 277 277 278 277 276 273 273 272 274 273 276 277 280 279 281 279 277 275 274 275 276 271 265 262 262 255 259 261 259 261 269 270 270 271 271 272 272 273 272 274 275 275 275 275 276 275 276 277 277 277 278
311 304 298 298 292 293 293 293 295 296 291 290 290 284 274 271 270 284 273 274 279 278 280 278 279 277 277 279 278 277 277 279 279 279 279 278 275 274 276 277 278 277 272 271 273 270 266 269 275 278 278 278 278 278 278 278 276 274 274 274 267 265 265 261 257 263 266 267 269 269 268 262 268 270 273 274 275 275 275 274 275 275 275 275 276 277 277 277
309 299 295 293 293 292 295 293 294 295 288 286 281 273 270 269 268 270 271 273 276 279 280 279 277 275 277 274 276 277 279 276 278 276 277 276 276 274 276 276 277 277 275 272 268 269 274 273 275 277 278 277 279 278 275 274 274 276 274 274 270 268 267 267 259 259 259 261 263 265 264 267 270 274 275 275 275 274 275 275 275 275 275 275 276 276 276 277
305 296 296 290 293 292 292 293 291 292 288 282 278 273 270 270 273 274 276 281 279 278 279 277 276 273 271 272 272 275 280 277 277 276 275 276 277 277 278 275 277 277 274 271 269 269 270 270 277 276 277 277 277 278 278 278 269 275 276 269 273 274 273 263 266 267 265 259 263 259 269 271 273 274 274 274 274 273 273 274 274 274 274 275 275 275 275 276
291 292 297 292 292 292 289 291 290 286 286 281 275 271 272 275 278 276 284 281 280 280 275 273 273 274 273 272 272 271 276 278 276 276 275 277 277 277 277 278 278 277 277 276 268 272 269 273 275 275 279 278 276 277 277 275 276 271 267 272 275 275 273 269 264 260 254 259 263 265 265 263 266 264 273 273 272 273 273 273 273 274 274 274 274 275 275 276
294 292 293 291 292 290 294 293 289 286 283 282 274 284 278 279 280 281 280 281 281 279 274 275 275 277 271 272 275 273 278 275 279 275 276 276 276 280 277 277 278 278 278 277 274 272 274 268 272 275 275 277 276 279 276 278 277 279 277 275 274 265 268 265 261 259 260 259 261 263 260 262 264 266 270 271 272 272 272 273 272 273 273 274 274 275 276 276
286 289 291 293 291 290 293 289 287 284 282 280 271 279 280 279 279 280 279 282 279 279 276 275 274 275 276 270 272 271 272 274 274 276 272 276 273 279 278 277 279 277 276 277 275 274 274 267 271 274 277 277 276 277 268 271 275 275 277 275 274 270 261 264 266 262 263 261 260 262 260 268 266 264 270 272 272 273 272 272 272 273 273 274 274 274 275 276
291 288 285 292 289 292 291 290 290 285 281 277 271 274 279 281 283 280 278 280 281 278 276 277 276 274 274 276 276 273 274 275 276 275 276 277 278 279 277 277 277 277 277 276 276 276 273 274 264 271 274 275 273 274 273 274 267 271 267 265 268 265 269 268 265 265 268 258 258 256 261 261 268 273 273 274 274 273 273 272 273 273 274 274 274 274 275 275
283 284 284 290 290 289 290 292 284 277 274 278 277 279 279 282 282 281 279 280 281 281 278 278 277 277 278 275 274 277 274 273 274 273 276 276 277 272 276 277 276 276 277 275 273 272 267 270 266 269 274 271 273 274 275 275 274 273 270 269 270 266 267 265 267 260 258 263 260 256 265 259 269 274 273 274 273 273 273 273 273 273 273 274 274 274 275 275
286 278 286 291 289 291 288 284 274 276 276 274 277 281 284 288 280 280 281 280 280 281 280 278 278 277 276 278 277 275 276 272 274 272 273 274 278 276 276 271 275 275 274 273 272 275 274 270 271 268 272 275 276 275 274 274 275 274 274 274 269 265 261 259 260 262 261 262 258 260 259 263 272 273 273 273 273 273 273 273 273 273 273 274 274 275 275 275
280 285 290 290 289 291 286 274 276 277 274 280 280 281 279 280 278 280 281 281 281 280 280 280 281 278 277 279 278 277 277 273 275 276 276 276 274 277 275 274 274 275 275 271 274 275 282 267 263 269 271 270 272 273 274 271 275 274 273 270 271 269 269 265 263 259 263 261 265 262 262 264 273 274 273 272 272 272 273 272 273 273 274 274 274 274 274 274
282 284 288 292 290 289 281 277 275 276 276 281 280 282 280 282 280 280 279 280 279 278 279 279 278 279 279 277 277 279 278 272 276 277 276 275 277 275 274 275 275 277 274 273 271 276 268 268 270 261 259 266 270 270 271 272 271 270 271 268 264 263 261 258 261 258 265 261 267 263 260 259 273 273 274 273 272 272 272 273 273 273 274 274 274 274 274 274
283 283 284 287 292 290 280 275 275 269 275 276 275 277 277 281 279 281 281 281 279 278 277 279 280 280 279 278 277 278 277 277 274 275 274 272 275 275 273 273 272 277 276 278 283 278 272 268 266 262 262 262 262 262 264 267 267 272 270 269 266 265 264 266 267 259 261 263 266 261 261 268 272 273 273 273 272 272 273 273 274 274 273 273 274 274 273 273
282 280 282 283 285 285 280 278 278 275 270 273 274 276 277 278 281 277 279 282 279 279 278 279 279 279 278 277 276 276 277 278 277 272 271 273 272 275 275 271 272 278 279 281 277 273 266 268 270 264 262 264 268 270 272 274 271 267 267 266 265 263 261 261 262 260 264 259 261 263 265 267 270 272 271 271 271 270 272 272 272 273 273 274 274 273 273 272
280 278 276 275 278 283 278 280 278 277 276 277 274 277 274 276 276 280 278 280 280 280 280 280 279 278 277 276 275 275 275 275 275 275 272 270 269 273 271 273 273 275 282 281 275 265 264 267 266 269 267 271 273 273 273 273 270 270 268 267 264 262 263 265 266 265 265 261 265 266 266 264 268 271 270 270 271 271 272 272 272 273 273 273 273 272 272 270
281 280 280 282 282 279 275 279 278 279 278 278 275 277 276 275 276 275 279 281 280 278 279 278 276 277 279 278 277 271 272 274 273 271 270 269 270 272 275 275 276 278 278 275 269 270 265 267 266 265 264 267 269 271 272 270 271 270 269 268 267 266 264 264 262 265 268 263 265 268 267 266 269 270 269 270 271 271 271 272 273 273 273 273 271 269 268 268
281 281 282 282 279 278 279 280 279 279 280 278 278 280 276 276 276 279 278 279 277 279 279 274 277 277 277 277 277 273 272 270 269 269 267 269 268 271 267 271 277 274 274 271 272 262 268 264 265 263 268 270 270 269 270 271 269 269 264 268 269 266 265 265 266 265 266 267 269 268 267 267 269 269 270 271 272 272 272 273 273 272 272 272 269 267 267 267
283 280 280 279 279 276 276 277 279 278 280 280 275 279 279 278 279 278 279 279 275 278 280 280 278 277 277 275 276 274 275 276 275 271 270 271 270 268 268 270 270 272 273 271 269 271 271 265 271 264 265 268 268 267 268 269 268 267 268 268 268 267 266 265 266 267 266 265 265 266 266 266 268 270 271 272 272 272 272 272 272 272 271 269 267 267 267 267
283 279 284 282 277 278 277 274 278 277 275 278 275 278 281 278 279 279 279 279 280 279 279 280 279 277 276 276 276 276 277 277 277 277 276 274 270 272 270 270 276 270 269 267 265 266 268 268 259 258 265 265 268 268 271 267 266 266 267 268 268 267 265 267 264 268 266 264 266 263 262 264 269 271 271 272 272 271 270 271 271 271 271 267 265 266 267 266
282 284 279 280 278 279 277 274 276 275 276 278 280 280 280 281 279 278 277 279 275 277 280 281 278 279 274 275 274 277 279 278 278 278 278 276 277 277 276 276 277 274 267 266 263 265 261 262 263 259 263 258 265 267 270 267 268 263 260 267 269 267 268 268 268 268 269 269 264 260 264 267 269 271 269 270 271 271 271 271 271 271 268 266 265 266 266 265
Wind_Speed
7 7 6 6 5 5 5 6 5 6 6 7 6 6 7 7 7 7 6 6 7 7 7 7 7 7 7 8 8 9 7 4 4 2 6 3 4 6 9 10 10 8 3 2 7 4 2 6 5 10 4 3 3 1 1 3 2 1 2 4 2 4 4 6 7 10 2 1 2 5 8 3 1 0 0 1 5 2 1 0 3 0 4 1 2 2 4 5
6 6 6 5 5 5 5 5 6 6 6 7 7 7 7 8 8 7 8 8 7 7 6 7 7 7 7 8 7 5 5 3 5 7 1 1 5 8 9 8 8 4 1 3 5 3 2 3 3 5 4 1 2 0 1 0 1 3 2 2 8 6 6 8 6 7 3 1 3 3 4 4 1 5 1 1 1 1 1 2 1 3 1 5 6 6 7 8
7 6 5 5 5 5 6 5 6 5 5 5 6 6 7 8 8 8 8 8 7 7 8 9 9 9 8 7 7 3 0 2 2 4 1 3 7 10 9 7 4 2 0 0 1 4 1 1 0 1 3 1 6 1 3 1 1 1 4 4 5 8 4 5 4 4 1 6 3 3 1 4 1 1 0 2 2 2 4 3 1 5 8 7 4 5 7 7
7 7 6 5 5 5 5 6 6 6 6 7 6 6 7 7 8 8 7 7 8 8 8 9 9 8 7 8 7 1 2 3 2 2 2 5 8 9 8 5 2 3 5 6 3 3 4 6 6 3 1 1 3 0 1 1 1 1 2 4 2 4 1 1 8 3 5 0 3 5 2 2 3 3 1 3 1 4 7 8 6 8 10 9 8 8 8 8
7 7 7 7 7 6 6 6 7 7 6 7 7 7 8 9 7 8 7 7 8 8 7 7 8 8 8 6 6 0 2 3 1 1 4 8 9 9 7 5 2 1 1 6 5 5 6 3 1 3 2 2 2 1 0 1 1 4 5 1 2 2 0 1 5 2 4 1 7 4 4 4 1 1 2 5 3 5 2 2 5 6 1 10 11 9 7 8
7 7 7 7 7 7 7 7 7 7 8 9 9 9 9 9 9 8 8 8 7 7 7 7 7 7 6 4 2 0 2 2 0 2 5 8 9 7 4 4 6 5 4 5 2 2 0 4 2 1 1 1 1 3 0 0 1 3 3 1 3 2 0 1 2 3 4 3 4 4 3 4 2 2 1 3 5 1 1 3 2 5 4 4 7 10 8 9
7 6 6 6 6 6 6 6 7 7 7 7 8 8 9 8 7 7 7 8 8 8 8 7 7 8 7 2 2 8 3 0 1 4 7 8 8 6 2 4 6 4 3 2 4 0 1 2 1 1 2 1 1 2 1 1 2 1 3 0 1 3 0 1 0 2 1 8 4 3 1 1 3 1 1 0 2 6 8 6 5 2 3 7 10 8 9 8
6 5 5 5 6 6 6 6 6 6 6 5 5 5 7 7 6 5 6 6 6 6 6 5 5 5 5 2 1 3 2 0 3 2 8 8 8 7 1 4 4 3 8 4 0 1 1 1 1 3 1 3 2 3 0 0 1 2 2 0 1 1 2 1 1 2 2 0 1 4 4 1 3 1 2 0 1 9 10 6 3 6 8 8 8 7 7 7
5 5 5 5 5 5 4 5 6 6 6 6 5 5 5 6 6 5 4 4 5 5 4 4 4 2 3 3 2 2 1 1 3 5 6 8 8 8 1 1 5 4 3 2 2 2 2 2 1 5 3 1 2 2 0 1 6 3 2 1 1 1 2 1 1 1 1 1 2 4 0 1 4 1 1 0 7 10 5 8 7 8 11 9 8 7 7 7
5 4 4 5 5 5 5 5 5 6 6 6 5 5 6 6 5 5 5 4 5 4 4 3 5 2 3 2 3 6 1 1 3 3 5 6 5 4 9 2 2 4 2 2 2 3 1 3 1 4 6 3 3 1 0 3 2 2 2 2 2 0 1 0 4 1 1 1 2 3 0 2 1 1 1 1 9 9 8 10 10 11 11 9 9 8 7 8
5 5 6 6 7 7 7 8 9 9 8 8 8 7 7 7 6 4 3 4 3 4 3 2 3 4 1 2 3 1 1 2 0 3 5 6 7 7 3 5 1 3 5 1 2 1 1 6 4 3 1 2 4 0 1 1 4 2 2 1 1 5 1 1 1 0 0 0 2 3 1 0 3 1 1 7 10 7 9 11 11 11 10 9 10 10 8 9
6 8 7 9 8 8 9 9 10 10 11 10 10 10 9 8 8 6 4 3 4 3 2 1 2 5 4 4 3 0 3 3 0 1 4 6 3 2 4 2 1 2 2 1 1 2 3 4 5 1 1 2 0 1 0 3 1 1 3 2 3 4 2 4 0 0 1 1 3 1 2 1 2 2 5 8 6 7 11 12 11 12 10 10 10 9 9 9
8 7 9 8 8 9 9 10 11 11 11 9 10 10 11 9 8 7 6 4 2 1 0 1 3 3 2 3 1 5 1 1 1 4 4 4 1 1 1 1 2 0 1 3 1 3 4 6 4 5 0 3 3 1 2 2 0 1 2 1 4 4 3 2 0 1 1 1 2 1 3 1 1 2 10 10 6 3 14 11 10 9 10 9 12 11 11 10
10 8 10 9 10 10 10 10 11 11 10 10 10 12 11 9 7 6 5 3 3 1 2 4 4 3 1 0 4 2 1 2 2 7 6 5 4 2 0 1 3 2 1 1 1 2 5 1 5 4 2 2 0 0 3 3 3 2 0 3 1 2 2 1 1 2 4 0 1 1 3 3 2 7 10 11 6 9 10 10 9 10 10 10 10 11 13 12
7 9 8 9 9 9 9 11 12 13 13 11 11 12 10 9 6 4 3 1 2 1 6 5 3 1 3 1 4 7 4 2 7 4 3 6 5 3 2 6 4 5 1 2 3 2 5 5 4 2 1 1 0 1 1 2 4 2 1 3 3 1 3 5 3 4 2 1 3 2 0 4 1 8 11 8 5 12 13 10 10 9 9 11 10 12 13 12
8 8 8 9 9 11 11 12 12 13 14 13 12 12 8 5 4 2 1 3 0 6 2 1 3 5 3 1 1 3 4 3 5 4 1 2 1 1 3 5 2 2 1 2 3 4 3 7 6 1 1 1 4 4 2 3 2 4 1 3 2 1 5 5 1 2 2 0 3 1 3 1 1 9 10 9 6 11 13 10 10 10 11 11 10 10 11 12
11 11 11 10 12 12 12 12 12 14 15 14 12 6 4 7 4 3 6 6 3 1 0 1 1 0 1 3 0 2 2 2 4 3 6 1 0 1 2 2 1 2 3 2 1 0 3 3 1 1 4 3 1 3 2 3 4 2 1 2 2 1 1 2 3 2 4 1 2 3 1 3 2 8 9 9 6 10 12 10 10 9 8 9 10 10 11 11
10 11 11 10 10 11 11 12 13 13 14 13 8 5 3 7 3 3 4 6 3 4 5 2 3 3 0 5 2 5 1 5 7 6 4 2 2 3 1 1 0 2 2 1 3 1 2 1 2 2 1 3 1 1 2 5 3 2 2 3 4 0 2 4 2 1 2 2 2 2 1 1 6 7 10 8 6 11 10 8 9 9 9 9 10 10 11 11
10 10 10 10 9 10 11 11 13 12 14 11 4 3 3 4 4 5 6 4 1 3 2 5 6 2 2 5 4 7 5 4 2 3 6 6 2 1 1 1 3 1 0 2 1 1 3 2 3 2 3 1 2 5 7 5 3 2 2 3 2 4 3 3 4 1 1 1 1 1 2 4 8 9 8 9 6 10 9 8 8 8 9 9 9 10 10 10
10 10 9 9 10 10 11 11 12 12 12 7 5 1 3 6 6 1 8 8 5 1 1 1 1 2 3 4 5 6 5 3 1 1 4 1 2 4 0 1 1 5 2 2 3 2 0 2 3 5 6 4 4 3 1 1 2 2 2 1 4 3 5 4 2 1 1 0 1 5 7 5 6 7 6 5 7 10 8 9 7 8 8 8 9 10 10 11
11 10 11 12 11 10 10 11 11 9 6 2 3 6 3 0 3 4 4 1 1 1 1 1 2 0 1 2 3 6 5 3 1 4 5 3 1 1 2 3 4 1 2 0 1 2 1 2 3 3 3 3 3 2 4 5 2 0 1 2 5 2 6 2 0 3 3 1 0 3 8 6 5 5 6 5 8 9 6 7 8 9 8 8 10 10 10 9
10 10 12 12 11 10 9 8 9 5 6 5 7 5 1 1 1 1 1 2 0 0 2 1 0 2 3 3 2 3 4 2 4 5 4 7 5 2 4 5 1 0 3 1 1 3 2 2 1 2 0 3 4 2 1 1 1 2 2 1 1 5 5 3 2 2 2 1 1 2 5 4 4 5 6 7 6 4 4 5 6 9 9 7 8 8 9 8
11 12 13 12 11 10 8 6 4 8 5 7 4 3 2 0 1 1 1 2 1 0 1 2 1 2 3 2 0 1 3 3 2 7 8 7 5 4 2 3 4 0 2 5 1 1 4 2 2 1 1 1 1 2 2 2 2 2 0 0 4 2 3 3 1 2 2 1 1 2 6 3 3 6 8 6 5 5 7 8 8 6 8 8 7 6 7 8
9 11 13 13 12 11 8 4 3 7 6 4 6 2 0 1 0 1 1 1 0 3 0 1 0 0 2 2 1 2 1 1 1 8 5 4 3 2 2 2 2 2 2 2 2 1 3 0 1 2 1 1 1 2 1 1 3 2 2 2 2 1 1 4 3 4 2 1 2 2 1 3 2 4 4 5 5 8 7 9 9 8 7 7 7 8 6 7
9 11 13 13 14 12 6 5 8 1 2 2 3 1 2 2 1 2 1 1 2 1 1 1 3 0 1 1 3 1 0 0 2 3 2 3 5 2 1 1 0 1 0 1 2 1 2 0 1 0 1 2 0 2 0 2 4 4 3 4 2 2 1 2 2 5 6 3 2 0 5 2 3 3 4 3 4 7 4 8 7 7 7 7 8 7 7 7
12 12 12 13 14 14 2 4 1 1 2 2 0 1 2 1 2 1 4 3 1 2 2 1 1 1 2 1 3 1 0 0 1 1 0 1 3 1 0 1 1 2 0 1 1 1 0 0 1 1 2 2 2 0 1 2 1 1 1 2 2 2 2 1 2 3 2 0 1 1 3 6 2 1 3 3 5 7 5 7 6 6 5 5 6 6 5 6
13 11 11 12 13 12 5 1 0 1 2 1 1 2 3 1 1 1 1 4 2 0 1 2 1 1 2 2 1 0 2 2 1 1 2 3 1 1 1 3 1 1 1 1 2 0 1 1 3 4 2 2 2 3 0 2 2 1 0 5 4 2 1 1 1 3 5 0 4 1 2 3 4 2 2 4 6 6 6 6 6 5 5 6 5 5 5 5
12 12 10 11 9 10 2 3 1 2 0 0 0 1 1 1 0 2 4 2 1 2 1 3 0 2 4 5 6 4 1 6 2 1 1 2 0 3 4 0 1 1 2 1 1 1 1 2 2 3 3 2 1 1 1 1 1 2 2 3 0 1 2 2 2 3 1 2 6 3 1 0 3 0 2 2 7 3 4 4 4 4 5 5 5 5 5 4
12 12 11 9 4 7 5 3 3 1 0 0 1 1 1 1 3 5 4 1 1 2 2 0 1 2 8 4 4 2 2 4 1 4 6 1 2 1 1 0 2 2 1 1 2 1 1 0 0 1 1 0 2 1 2 4 1 0 3 5 5 5 6 3 3 4 1 2 5 1 1 1 6 2 4 2 1 4 4 4 4 4 5 4 5 4 5 4
12 13 13 9 2 3 4 2 4 0 1 1 1 1 2 2 2 1 2 1 1 1 1 2 3 6 4 4 1 8 5 3 0 6 4 2 8 7 2 1 1 1 0 5 3 3 0 3 3 2 0 0 1 0 1 1 0 2 3 1 1 5 3 3 6 2 3 0 4 3 4 2 3 2 5 5 4 2 6 2 3 4 5 5 4 5 4 4
11 12 12 6 3 1 1 2 2 1 1 1 1 2 1 7 2 3 1 2 1 2 2 4 3 5 7 7 6 5 2 2 8 5 4 5 9 5 4 1 4 4 5 5 1 4 1 1 1 0 2 1 0 0 2 0 0 1 0 1 3 1 6 2 3 4 2 2 2 4 1 0 1 2 1 1 4 4 8 8 7 6 5 5 4 4 4 4
11 9 9 6 1 0 3 2 1 3 3 2 2 3 3 2 6 4 1 4 0 3 2 4 1 1 4 1 2 5 4 6 2 5 5 3 4 9 8 4 4 4 5 5 5 5 1 2 1 3 2 3 1 1 1 2 3 3 2 6 4 5 6 2 5 1 1 1 1 2 0 1 5 2 4 8 6 7 4 6 8 7 6 5 4 4 4 3
9 4 4 4 1 2 1 1 4 3 3 2 3 4 2 5 1 2 2 4 0 1 2 2 3 4 4 1 4 4 2 3 4 3 1 1 5 2 1 4 1 1 3 2 3 8 4 2 3 2 2 1 0 2 5 2 3 7 3 2 3 4 3 2 5 2 4 3 2 1 2 2 1 1 3 6 6 5 6 9 7 7 7 6 4 4 3 2
5 4 0 2 3 1 1 3 2 4 2 1 1 2 7 5 0 0 1 2 2 2 2 2 5 4 3 2 3 3 4 1 5 4 3 1 6 4 5 5 6 6 2 1 5 1 4 4 2 3 1 2 3 2 1 1 2 1 2 0 2 3 0 4 1 3 4 6 5 3 1 2 0 1 4 3 3 6 7 7 7 6 6 5 3 3 2 2
3 4 2 1 1 2 2 2 3 2 2 2 10 7 5 1 1 1 1 3 2 3 1 0 2 3 2 2 3 1 1 2 3 3 6 5 3 1 3 5 6 2 0 1 1 0 2 6 4 1 2 2 2 1 1 2 2 0 1 2 4 1 4 3 3 2 2 3 5 0 2 0 1 2 2 3 4 6 6 6 6 7 5 4 4 1 2 2
1 1 0 1 1 1 1 1 2 1 2 7 8 7 3 1 1 1 0 1 0 2 7 3 3 3 2 4 1 3 4 0 4 2 2 3 1 1 1 1 2 3 3 1 1 1 4 2 0 6 2 3 1 1 1 1 1 1 1 1 1 2 3 1 2 1 2 3 3 1 2 2 1 3 2 3 4 3 3 4 4 5 3 3 1 2 3 4
1 2 1 1 0 2 1 2 1 3 8 9 8 2 2 1 0 2 2 0 1 0 2 4 4 3 4 4 2 6 3 1 1 2 2 0 1 1 2 0 3 2 1 1 2 2 1 10 3 3 0 0 1 0 1 3 1 2 2 2 1 2 3 3 1 3 4 1 4 2 1 5 2 4 2 2 3 4 3 4 3 2 2 2 1 2 3 4
1 1 0 1 1 2 1 1 3 7 7 8 5 4 0 1 0 0 0 0 0 1 2 2 1 4 1 1 5 4 8 2 7 3 1 1 0 0 2 0 2 2 2 1 1 1 1 6 4 1 1 4 1 0 2 1 1 1 1 2 1 1 1 4 3 3 3 4 4 3 2 4 2 1 1 6 8 8 6 3 2 2 0 0 3 3 4 4
2 2 0 0 2 3 1 2 7 6 6 10 0 3 1 0 1 0 3 2 0 0 1 0 0 2 1 0 2 1 2 3 3 2 2 1 2 1 1 1 0 2 2 1 0 1 1 1 7 1 0 2 1 2 4 4 4 1 1 3 1 4 3 2 0 2 5 5 5 5 5 3 1 1 8 7 6 7 6 4 3 3 2 2 3 4 4 4
1 1 2 0 5 2 3 1 7 10 9 5 2 1 1 0 0 0 2 0 0 1 0 0 0 1 1 1 1 2 2 0 1 2 1 1 0 2 2 3 0 4 2 1 1 0 1 1 3 4 3 1 1 3 1 1 1 5 4 3 3 1 3 3 0 1 2 2 1 1 6 1 2 2 3 7 5 6 7 5 4 3 3 4 5 5 5 5
1 2 1 2 6 1 2 12 13 7 6 0 1 2 1 0 1 0 3 2 0 1 1 1 2 0 1 3 2 0 1 1 1 0 0 1 1 2 1 0 2 3 2 1 2 2 1 0 4 6 8 3 2 0 2 1 1 1 3 2 3 1 4 3 6 2 2 2 2 1 8 3 3 3 4 5 1 6 5 6 4 3 3 4 5 6 6 6
1 2 3 2 4 2 4 9 4 0 4 3 1 0 0 1 1 1 0 0 1 0 2 2 0 0 1 1 1 1 1 2 1 1 1 1 0 1 1 1 3 1 1 1 0 2 1 1 1 5 4 6 4 4 1 2 1 1 3 1 2 3 5 3 0 2 1 1 3 2 1 4 1 3 4 3 4 5 5 5 2 2 4 5 5 6 6 6
4 0 3 3 3 3 10 5 1 6 4 0 1 1 0 1 1 1 0 1 0 1 0 1 0 0 1 0 1 1 1 1 2 1 0 1 1 1 1 2 2 2 2 1 0 0 3 0 3 5 7 3 2 0 0 2 1 1 4 3 1 2 0 3 2 3 1 2 1 1 1 4 1 3 3 4 5 4 3 2 0 4 4 5 6 6 7 6
2 0 4 3 5 5 8 2 2 2 1 1 2 0 1 0 1 2 1 1 1 2 0 0 1 1 0 0 1 0 1 1 2 1 1 0 0 2 1 1 3 1 1 0 1 2 1 2 2 3 4 6 6 5 1 2 4 4 1 2 3 2 5 2 4 0 0 4 4 4 5 1 1 2 2 4 5 4 3 4 3 5 6 5 6 6 6 4
2 0 1 7 11 10 5 2 6 3 1 1 1 3 4 1 1 0 0 0 0 0 0 1 0 1 0 0 0 0 1 1 3 0 0 1 1 1 1 1 3 0 1 3 3 2 0 2 1 1 3 5 6 6 6 6 4 3 1 1 3 5 4 2 1 1 1 2 2 1 5 3 2 0 2 3 3 5 4 4 5 4 6 7 6 5 4 3
1 1 6 6 9 8 6 1 5 6 4 1 3 1 1 2 1 2 2 0 1 0 0 2 1 1 0 2 2 1 1 1 1 2 3 1 1 1 1 2 1 0 2 3 2 1 1 0 1 3 4 4 7 5 2 2 3 2 7 3 4 1 2 3 4 3 3 2 2 5 1 7 7 3 5 4 4 5 6 6 6 7 7 6 5 4 4 3
2 5 1 2 5 8 4 5 3 3 1 1 2 1 6 1 3 1 4 0 0 0 0 1 1 1 2 3 1 2 0 2 1 0 1 2 2 2 2 2 4 3 4 1 1 2 2 1 0 0 4 7 4 7 0 3 2 3 3 3 1 2 1 1 1 3 2 2 8 1 2 3 9 6 3 4 5 5 5 6 7 8 7 6 5 4 5 4
3 1 1 1 3 2 5 5 5 4 2 2 1 0 1 2 3 1 2 0 0 0 0 0 3 2 1 1 0 1 3 4 0 1 1 1 3 5 2 1 2 5 3 1 1 1 1 0 3 4 8 5 8 8 4 1 2 2 1 1 1 0 2 5 5 2 2 2 7 3 1 4 7 1 1 3 4 6 6 7 8 8 7 7 7 7 4 3
4 2 1 2 1 0 1 1 2 3 7 3 1 2 1 3 3 0 1 3 1 1 1 1 3 3 2 1 1 1 1 5 4 1 2 2 1 3 2 1 0 4 3 2 3 1 2 1 2 2 6 5 4 1 0 1 1 1 1 0 0 2 0 2 2 2 4 3 5 5 4 8 6 1 3 5 5 6 6 7 7 9 8 8 7 5 4 4
1 2 0 5 7 4 1 1 1 3 6 2 2 2 0 1 1 3 1 1 1 1 0 0 4 4 1 1 1 0 1 2 3 3 1 3 5 1 1 2 2 4 4 1 1 1 1 2 4 0 4 6 2 2 0 0 1 1 2 2 1 1 1 2 0 1 0 4 4 4 7 9 1 2 4 6 5 5 8 10 10 8 8 8 6 6 6 6
1 0 4 7 5 3 1 3 2 2 2 6 5 1 0 0 1 1 2 1 1 1 1 2 2 3 1 0 1 2 2 3 3 7 4 2 2 2 1 2 2 3 4 2 3 4 4 2 2 2 3 7 2 6 3 3 3 4 2 5 5 3 2 1 1 1 1 7 6 4 5 4 2 4 5 6 6 10 11 13 11 8 9 5 5 5 6 6
2 0 2 5 5 2 2 1 1 2 4 1 1 1 0 1 1 0 1 1 1 1 1 0 1 0 2 1 2 2 2 3 4 3 2 2 0 0 0 0 0 1 2 1 0 1 0 1 2 2 1 3 5 3 10 3 4 1 2 1 2 2 2 2 3 3 5 2 3 5 7 1 4 5 9 10 8 9 10 9 9 11 4 2 4 6 7 8
Wind_Direction
36 34 27 20 17 13 10 3 357 357 355 352 350 350 353 348 345 340 332 330 331 325 335 341 350 350 357 358 356 354 17 86 32 35 60 231 245 285 313 314 316 318 38 36 10 51 342 13 7 340 25 54 316 56 288 48 9 54 142 128 212 198 165 204 180 189 211 114 200 176 207 138 174 234 260 98 24 48 7 337 300 3 52 323 298 18 125 131
25 28 22 7 2 356 353 354 355 353 352 351 353 350 350 348 344 335 343 337 329 326 338 347 347 352 355 354 355 5 60 67 74 70 91 331 346 312 313 316 326 326 130 36 51 50 68 339 336 31 46 64 318 23 349 289 51 95 115 111 228 173 239 164 198 194 122 238 158 203 204 189 203 148 238 113 295 5 258 273 348 266 312 54 56 95 123 139
17 18 16 4 358 352 347 342 346 341 346 342 349 337 346 345 344 340 338 338 334 332 345 348 348 350 351 347 337 9 359 30 67 28 262 344 320 328 327 328 339 24 98 143 174 114 87 192 233 79 9 124 7 199 35 309 51 222 122 230 248 209 231 216 179 191 219 134 105 153 193 167 239 147 171 191 152 42 210 230 290 224 230 175 133 145 142 148
11 10 360 360 357 352 348 345 343 342 338 335 336 340 340 342 342 344 335 333 341 340 342 349 347 349 347 341 341 340 75 66 48 264 271 300 321 334 336 339 22 95 85 64 151 115 127 84 54 79 60 62 310 17 164 265 84 261 98 198 234 194 149 230 185 221 194 175 139 135 119 161 261 213 117 184 81 269 270 237 202 216 227 176 177 166 159 153
4 3 356 354 354 352 352 350 350 348 340 339 338 336 342 341 335 343 340 335 341 341 341 341 345 343 339 342 347 86 63 56 262 241 260 327 333 345 344 345 45 76 107 146 85 54 78 95 88 41 82 242 351 14 297 358 134 109 206 198 161 131 307 266 194 172 132 170 104 123 123 211 78 65 148 154 207 260 215 352 265 269 262 159 172 180 158 157
3 2 360 353 353 354 351 347 347 347 345 345 341 339 344 340 340 339 342 338 332 338 338 347 341 333 339 355 35 72 68 12 216 294 332 331 334 353 356 51 96 95 88 52 97 40 78 356 63 26 6 53 223 174 273 159 357 217 316 251 210 200 185 334 189 207 135 112 118 149 218 89 118 160 197 183 210 261 253 242 282 262 252 192 132 141 154 168
356 357 351 346 337 340 339 344 342 340 339 334 335 332 335 338 331 338 334 339 335 331 342 343 337 336 334 46 51 76 88 259 40 280 356 335 332 354 53 58 66 55 67 64 16 65 43 76 63 190 100 37 293 184 259 4 353 129 243 346 337 193 148 160 233 130 168 124 193 198 82 133 136 188 155 147 254 319 317 301 265 332 56 122 136 157 155 155
348 346 344 336 331 328 328 318 315 319 309 310 308 304 325 327 326 324 329 324 323 316 323 335 332 323 335 41 32 345 37 284 273 338 337 342 344 338 127 46 64 78 57 66 359 101 125 71 200 144 93 173 224 152 324 140 29 154 282 225 261 108 264 331 144 141 182 212 84 119 126 210 185 171 112 253 320 334 331 346 48 86 75 66 93 96 100 104
334 335 335 329 325 319 302 296 286 287 294 281 274 283 285 325 321 315 306 298 304 299 312 330 322 2 97 85 94 52 354 239 216 304 356 347 339 358 58 327 18 91 130 66 360 158 140 257 108 179 255 154 191 138 314 148 303 170 217 124 28 217 321 262 90 171 209 153 169 123 342 300 244 209 140 359 355 347 327 34 36 68 64 62 73 82 95 91
333 328 324 317 315 315 312 307 294 284 289 297 289 296 299 313 309 311 297 293 296 304 301 315 330 58 64 74 35 52 270 334 308 350 356 338 348 33 38 79 64 100 82 335 42 72 81 207 142 169 118 82 141 144 104 136 229 150 173 181 179 95 353 80 211 246 257 212 204 180 151 127 305 62 237 18 9 345 36 44 43 62 60 56 62 59 57 85
340 345 336 330 330 330 329 328 326 321 312 313 308 300 305 311 307 293 250 249 260 265 257 256 323 158 36 77 93 98 211 43 346 11 4 344 48 53 5 339 76 70 106 45 99 221 140 146 155 120 59 230 133 289 145 205 131 93 148 67 242 344 90 332 136 324 143 221 208 160 105 242 336 79 15 324 346 351 63 44 48 55 55 53 53 56 47 58
334 347 343 340 335 331 328 327 323 320 319 308 304 303 306 311 312 305 296 267 237 204 193 184 110 106 78 68 120 142 190 201 83 68 39 14 66 197 195 326 288 157 145 153 267 242 179 171 131 103 223 135 45 110 247 160 104 158 150 258 255 351 150 0 187 269 305 232 177 174 127 15 347 97 326 335 346 11 65 57 48 53 58 59 62 62 52 46
341 341 344 338 335 331 326 325 322 319 312 301 309 309 315 316 311 308 310 318 204 207 268 160 93 89 88 31 243 236 270 213 124 52 20 45 121 117 127 30 82 173 159 133 215 227 158 141 122 88 197 103 166 191 153 88 354 105 35 112 325 6 352 335 219 295 166 244 128 286 283 279 70 351 340 346 356 45 58 52 50 61 64 65 72 72 68 57
340 333 337 335 338 334 328 326 322 321 316 316 314 316 315 314 307 305 306 284 304 285 114 107 78 63 85 236 274 242 245 150 61 32 359 316 36 310 24 20 62 46 330 129 63 108 117 99 94 113 131 82 181 91 57 343 20 185 246 65 191 13 276 307 93 305 148 219 246 206 230 280 277 334 348 352 353 96 75 60 63 70 70 74 77 78 74 62
326 335 326 332 326 325 325 325 326 327 325 324 322 318 321 317 313 298 291 273 137 150 135 79 46 78 53 286 274 293 171 100 37 330 299 18 12 345 312 349 351 355 351 111 144 69 108 103 88 46 58 250 21 98 358 18 2 25 37 290 319 148 277 298 48 21 150 7 9 88 140 237 295 341 343 353 8 92 83 77 74 78 82 83 83 81 76 73
337 337 330 334 338 339 335 334 330 324 324 325 329 326 339 346 333 344 300 167 126 129 117 90 359 101 103 49 152 131 44 33 327 310 291 45 51 282 298 293 316 9 29 36 75 99 54 86 77 173 159 10 64 92 28 23 339 349 85 256 274 25 263 343 38 15 352 308 8 97 229 249 32 343 344 2 51 93 99 86 85 86 89 90 87 86 84 82
346 346 340 340 342 339 335 330 328 326 325 328 331 341 22 20 50 106 92 79 50 44 74 184 100 100 74 252 264 35 308 284 285 348 341 34 102 230 344 39 9 352 20 93 33 91 357 68 270 23 37 110 134 100 9 19 319 321 20 200 211 198 300 279 318 43 347 81 226 15 179 116 38 333 353 7 36 94 93 94 86 89 89 86 85 81 81 77
344 341 342 339 336 334 330 329 326 331 327 325 345 336 20 24 41 119 25 31 40 82 79 75 116 52 302 17 37 308 340 296 348 301 257 277 82 25 65 41 225 65 47 66 351 109 324 104 33 181 9 353 42 59 112 253 219 263 308 333 319 304 212 255 326 300 31 36 196 20 68 352 18 359 12 12 39 88 84 90 98 96 93 88 85 83 79 79
335 337 338 335 326 327 330 326 329 333 330 333 24 97 39 59 39 81 58 353 38 347 33 330 19 60 237 295 287 297 295 247 312 17 327 1 338 108 59 94 78 170 207 64 246 112 352 85 42 45 260 296 234 164 185 225 162 249 200 217 200 284 261 221 237 294 64 325 235 293 219 347 11 9 11 27 37 86 93 93 93 93 91 89 87 85 82 81
341 341 335 334 332 329 332 332 330 341 339 358 13 28 16 18 8 328 349 34 71 113 165 237 159 260 323 0 331 283 263 65 166 268 323 319 327 346 45 39 347 62 91 214 303 66 333 150 215 220 232 235 265 213 203 196 151 90 96 133 238 235 279 287 294 289 317 110 38 104 90 58 13 10 356 8 65 70 78 94 96 98 97 93 92 89 88 80
349 344 346 342 338 333 332 336 334 340 354 90 65 60 61 277 24 328 331 349 217 29 41 243 180 181 264 294 299 3 17 321 68 325 351 271 114 31 292 9 25 74 12 250 190 319 76 25 285 253 263 255 273 158 112 80 50 141 144 198 286 186 264 240 346 344 299 148 151 128 88 43 19 12 10 10 65 51 69 99 103 103 98 95 97 96 87 92
346 346 346 342 336 332 334 334 336 359 73 67 66 93 108 148 122 213 96 329 333 119 49 304 268 332 317 204 259 144 99 17 339 341 316 18 323 62 317 80 62 54 339 348 15 23 27 210 234 237 255 97 75 87 62 113 124 47 220 204 331 273 249 292 287 332 308 62 271 158 86 48 32 33 33 45 51 64 34 67 97 111 105 101 97 97 102 95
349 347 346 339 338 337 333 338 6 31 29 32 51 76 111 243 348 290 93 126 303 292 39 25 359 343 328 304 45 148 49 41 295 325 343 4 356 66 330 49 29 21 13 21 230 8 349 300 260 297 171 53 57 46 75 53 60 152 83 38 246 249 15 309 297 351 360 73 251 142 97 116 100 70 58 29 52 67 62 67 67 62 99 104 98 100 105 99
337 348 345 343 337 342 342 333 37 45 26 111 91 110 196 305 57 108 65 73 273 315 26 235 181 181 319 6 285 67 80 292 61 316 347 28 39 271 68 76 53 49 14 335 130 157 214 233 161 72 62 206 230 22 79 52 293 334 180 190 272 298 274 177 262 309 267 51 98 124 100 103 31 102 62 50 62 73 53 77 66 60 64 78 81 71 67 91
341 349 350 345 338 340 330 39 39 360 194 46 57 232 261 225 202 190 93 357 24 352 168 356 104 265 266 14 4 14 258 75 240 245 284 40 334 30 353 210 107 340 225 158 86 48 338 285 123 67 43 44 140 339 298 164 310 313 244 199 226 175 247 266 339 15 10 332 14 120 356 294 2 96 117 115 64 64 31 74 59 70 69 74 78 78 78 74
347 348 349 347 338 336 267 55 334 178 72 62 222 220 258 249 224 155 93 73 228 270 1 296 158 338 151 313 14 163 16 16 230 264 224 305 209 111 172 3 64 17 181 99 92 177 158 355 87 207 123 62 73 176 270 132 141 55 241 176 200 157 113 103 345 45 342 153 352 23 174 275 97 265 162 96 80 72 58 63 64 62 72 77 85 95 93 98
348 344 352 348 344 347 61 305 181 161 31 339 191 245 270 274 240 138 37 2 47 8 22 249 56 295 93 299 3 75 49 294 353 3 19 343 21 306 70 298 8 72 112 178 46 108 15 331 34 39 61 57 38 55 268 118 89 280 242 138 106 121 292 274 127 167 217 309 287 52 120 222 304 179 97 112 91 88 76 65 58 64 72 82 86 89 99 93
347 346 348 356 358 27 151 124 36 45 173 276 143 229 307 226 7 44 81 65 323 328 5 313 94 330 60 315 33 85 182 293 37 248 145 299 128 335 72 123 114 312 315 12 332 257 102 332 44 15 58 65 42 214 291 157 177 227 205 181 231 193 218 170 151 177 209 48 284 352 296 31 256 45 43 191 117 114 115 88 75 71 81 90 91 90 90 93
349 343 340 354 30 47 62 105 114 84 233 118 172 137 180 75 85 102 120 109 244 70 206 100 255 25 336 348 32 15 328 9 66 309 325 307 64 194 44 231 137 124 6 108 178 284 326 121 242 108 96 312 242 286 191 161 328 189 105 81 71 65 60 109 108 109 324 62 286 319 321 166 278 113 146 291 125 194 200 133 97 91 104 113 108 101 98 100
347 345 339 348 57 11 359 36 45 188 92 171 105 118 57 58 36 39 23 312 16 311 41 279 53 300 15 21 326 3 22 338 158 309 13 71 316 30 57 122 118 83 258 3 89 196 249 322 176 83 146 236 208 324 144 225 109 116 104 102 27 37 39 32 69 89 61 33 260 250 304 130 304 191 196 162 186 209 149 191 119 95 100 94 99 117 130 126
348 346 341 4 71 213 94 16 284 131 158 88 142 63 74 39 106 101 68 244 43 286 15 25 349 15 27 40 339 335 13 336 338 23 345 2 359 38 10 33 39 53 39 9 343 325 25 3 38 314 39 40 109 5 22 98 45 126 45 45 24 20 7 34 346 33 85 283 260 284 247 48 168 301 183 57 307 258 190 174 151 136 128 127 125 124 132 136
351 355 2 54 144 98 67 285 160 127 112 133 76 60 75 261 6 78 223 329 21 317 66 301 346 42 4 316 83 329 331 326 357 30 32 19 38 31 358 92 339 41 346 2 312 359 63 56 283 340 277 47 266 70 334 11 16 40 58 31 53 292 26 331 12 339 196 195 150 7 117 34 235 157 289 308 310 310 228 142 140 133 131 129 123 131 124 133
347 8 44 63 66 46 90 131 100 131 113 69 72 54 54 90 56 273 295 323 349 360 293 136 264 356 299 8 343 334 260 32 325 70 144 358 100 41 303 66 273 145 349 304 328 10 288 288 6 303 5 356 265 43 326 13 343 14 68 103 63 8 31 264 283 208 302 296 266 19 341 227 145 187 358 314 325 326 91 100 107 120 126 132 135 120 102 87
360 7 100 6 87 60 122 102 113 128 80 44 79 22 44 54 269 128 299 274 282 1 354 360 326 336 59 69 325 3 14 264 27 329 39 342 50 27 333 352 39 359 71 344 46 345 29 341 311 4 36 360 47 92 151 210 6 269 174 120 173 137 225 298 220 292 265 244 289 278 356 237 317 316 339 26 15 71 74 84 92 91 93 99 103 98 96 123
62 39 105 11 37 12 72 103 97 115 80 64 50 80 100 249 228 227 280 304 312 309 306 327 326 23 321 21 322 294 132 307 31 11 15 52 359 57 353 332 338 91 189 72 288 72 247 237 256 257 259 349 75 283 121 89 70 277 176 97 61 275 129 213 213 176 286 341 346 209 186 231 86 10 48 67 68 67 70 69 76 77 69 80 93 135 256 260
73 310 15 355 26 334 68 92 134 100 87 60 72 42 84 181 360 147 269 199 320 351 310 358 57 40 310 307 317 54 308 85 308 63 359 60 219 35 287 226 357 4 28 80 232 350 16 305 282 316 20 82 97 258 335 66 9 279 61 70 197 187 121 61 16 57 85 64 242 161 309 256 168 252 34 50 83 66 76 85 84 90 86 73 143 246 265 253
24 329 101 329 359 348 339 123 120 77 65 85 91 72 195 297 175 178 346 26 275 197 19 59 324 61 334 307 275 339 301 31 301 58 346 182 3 5 340 336 179 8 37 129 325 196 171 273 309 60 106 8 257 82 54 10 121 66 41 237 131 123 120 126 260 333 63 115 268 54 266 304 23 318 176 279 143 205 180 167 124 114 135 132 339 256 276 264
57 49 10 357 277 346 93 102 76 54 75 79 70 141 317 64 329 181 230 39 11 16 66 62 300 67 291 43 315 341 318 69 322 44 301 351 98 125 85 321 3 110 357 299 137 285 108 327 299 341 246 272 4 78 10 359 344 82 199 208 69 317 348 328 88 346 347 309 291 330 277 243 170 247 131 246 211 204 198 172 156 136 287 309 329 306 294 275
59 81 18 287 343 359 106 105 67 66 65 63 24 95 291 230 223 126 218 127 160 123 74 240 289 325 130 137 260 295 334 21 322 18 55 344 60 148 96 197 324 152 316 235 67 290 33 198 295 298 160 326 359 75 346 293 334 23 24 24 357 103 160 32 307 183 118 271 36 295 37 303 196 220 200 240 213 190 168 160 193 213 222 259 280 285 283 293
25 33 317 314 347 54 164 81 65 48 61 91 197 122 223 69 307 358 21 120 310 90 265 80 212 301 351 239 125 324 308 111 360 289 64 287 150 29 57 5 349 311 1 338 124 299 273 125 250 280 290 19 342 15 294 353 329 338 34 343 358 29 220 113 45 132 255 217 198 226 335 279 286 265 236 255 227 179 161 165 183 219 249 253 261 271 283 289
53 98 271 314 349 88 42 47 44 38 91 216 98 147 16 40 328 356 43 43 94 294 169 193 162 224 261 14 346 118 297 1 337 308 200 309 66 324 41 72 355 322 318 21 50 351 68 39 221 316 350 14 231 238 262 225 164 155 137 134 169 32 353 25 281 22 50 82 240 74 287 266 267 75 283 292 133 133 141 148 184 221 261 272 280 282 283 294
85 40 307 343 351 101 78 51 17 110 92 71 51 352 73 57 73 332 12 324 56 305 5 105 94 125 129 233 228 309 316 307 256 23 254 153 335 66 316 97 304 287 24 323 148 268 136 162 79 292 233 284 295 296 307 235 166 165 110 127 133 121 106 105 173 285 5 242 121 161 112 279 264 306 356 74 100 109 131 110 110 266 272 277 279 281 285 286
52 169 256 340 345 84 65 62 296 40 55 241 232 12 338 27 122 237 72 344 21 153 3 61 207 18 194 269 269 274 210 274 174 261 219 269 265 228 328 325 280 286 145 346 15 295 78 66 13 282 305 311 329 336 5 59 128 35 27 49 46 3 220 179 176 180 188 290 259 319 229 245 293 42 43 55 67 82 72 127 144 287 286 292 296 307 305 315
157 295 337 307 34 107 73 100 76 22 348 302 65 115 360 136 57 7 13 332 85 352 86 293 328 142 285 116 150 269 210 349 228 10 1 127 304 152 50 319 289 8 90 203 125 302 27 303 114 329 4 338 343 350 5 330 54 82 349 1 73 77 64 157 104 70 269 227 179 126 245 281 335 93 51 58 37 45 5 323 276 305 310 306 307 306 316 350
110 309 276 311 3 51 102 183 131 140 36 111 49 29 345 23 107 169 150 335 336 161 106 342 210 258 277 161 225 255 287 173 295 350 98 183 270 149 117 152 302 18 14 283 284 302 78 232 79 50 7 353 332 331 301 308 305 301 66 47 2 87 117 3 267 340 103 283 115 161 256 239 225 31 332 19 38 358 333 332 328 308 299 306 312 317 347 27
47 115 315 354 14 44 72 62 100 128 114 123 41 319 100 4 23 306 141 155 199 182 155 235 11 101 17 31 3 360 336 328 165 291 26 315 305 338 117 311 180 18 276 232 11 51 155 23 84 152 150 196 222 238 252 42 348 6 283 33 321 37 35 98 109 98 222 233 282 236 198 306 325 81 47 38 21 348 328 329 325 321 318 315 316 350 5 355
123 73 10 342 341 48 70 25 27 45 99 152 88 333 360 300 262 334 184 13 203 182 66 62 288 38 332 45 334 314 262 310 358 54 291 243 265 261 285 184 316 243 305 195 87 85 70 329 298 156 209 225 237 263 328 51 237 269 292 294 74 34 19 114 166 263 165 56 293 223 191 5 299 344 52 1 358 324 309 313 317 317 321 316 336 347 338 331
72 238 108 200 113 329 23 358 44 70 16 71 122 217 346 342 8 35 314 158 201 255 107 327 44 63 216 232 50 322 320 312 30 261 345 197 332 329 33 9 44 312 332 353 12 109 139 57 293 99 267 241 263 269 312 279 196 219 270 34 338 184 114 127 236 224 165 209 236 263 127 311 298 52 321 335 317 307 299 312 308 302 304 319 338 342 329 345
109 142 135 308 95 254 132 232 75 91 62 64 128 76 358 56 21 222 186 318 18 341 55 13 326 1 305 270 147 270 321 17 322 270 150 315 316 335 357 340 204 12 51 27 2 151 97 276 253 145 291 298 301 338 335 111 323 5 54 359 208 160 207 184 227 199 161 244 260 283 295 273 268 160 333 308 292 279 296 298 306 323 323 332 346 337 334 337
188 119 136 13 86 110 10 40 103 55 60 348 82 332 136 17 325 326 352 156 354 315 16 39 296 325 309 164 184 130 248 203 221 283 242 99 319 120 239 188 289 333 39 59 340 315 84 284 40 293 354 308 308 327 230 160 200 103 70 83 44 156 120 191 285 258 4 293 294 304 315 301 221 206 299 298 276 280 308 323 323 319 325 343 1 353 336 339
147 136 149 113 48 332 10 24 44 79 68 348 66 288 71 281 273 197 263 220 183 278 348 298 286 324 87 114 156 246 245 213 221 223 223 162 251 229 125 291 116 324 358 7 17 316 50 289 63 56 6 305 313 351 336 65 74 110 51 8 12 28 35 290 54 242 104 276 287 322 314 281 277 317 301 283 311 329 324 320 320 324 334 2 359 339 331 340
83 140 81 107 86 330 47 326 10 59 24 251 138 269 166 301 223 120 319 159 237 235 198 219 210 200 301 14 272 239 245 197 229 246 218 213 67 142 203 199 114 295 301 105 248 47 72 105 20 25 21 263 262 347 326 52 104 360 339 287 278 269 222 275 268 268 228 208 312 302 268 218 288 297 318 328 337 318 314 319 317 324 5 92 353 331 331 327